This is the latest recevied weather packets stored in our database for station/object N3SBK. If no packets are shown the sender has not sent any weather packets the latest 10 day(s).
| Time | Temp. | Humidity | Pressure | Rain* | Wind** | Luminosity | Snow |
|---|---|---|---|---|---|---|---|
| 1787877144 | 19.44° C | 95% | 1006.9 hPa | 0 mm | - | 0 W/m² | - |
| 1787876844 | 19.44° C | 95% | 1006.7 hPa | 0 mm | - | 0 W/m² | - |
| 1787876539 | 20° C | 95% | 1006.7 hPa | 0 mm | - | 0 W/m² | - |
| 1787876238 | 20° C | 95% | 1006.5 hPa | 0 mm | - | 0 W/m² | - |
| 1787875932 | 20° C | 95% | 1006.5 hPa | 0 mm | - | 0 W/m² | - |
| 1787875627 | 20.56° C | 95% | 1006.5 hPa | 0 mm | - | 0 W/m² | - |
| 1787875326 | 20.56° C | 95% | 1006.4 hPa | 0 mm | - | 1 W/m² | - |
| 1787875025 | 20.56° C | 95% | 1006.4 hPa | 0 mm | - | 1 W/m² | - |
| 1787874720 | 20.56° C | 95% | 1006.3 hPa | 0 mm | - | 2 W/m² | - |
| 1787874418 | 20.56° C | 95% | 1006.3 hPa | 0 mm | - | 5 W/m² | - |
| 1787874114 | 20.56° C | 95% | 1006.2 hPa | 0 mm | - | 11 W/m² | - |
| 1787873813 | 20.56° C | 94% | 1006.2 hPa | 0 mm | - | 12 W/m² | - |
| 1787873508 | 20.56° C | 94% | 1006.1 hPa | 0 mm | - | 13 W/m² | - |
| 1787873203 | 20.56° C | 95% | 1006.3 hPa | 0 mm | - | 16 W/m² | - |
| 1787872902 | 20.56° C | 95% | 1006.2 hPa | 0 mm | - | 19 W/m² | - |
| 1787872597 | 20.56° C | 94% | 1006.1 hPa | 0 mm | - | 21 W/m² | - |
| 1787872292 | 20.56° C | 94% | 1006.2 hPa | 0 mm | - | 25 W/m² | - |
| 1787871992 | 20.56° C | 94% | 1006.2 hPa | 0 mm | - | 26 W/m² | - |
| 1787871688 | 21.11° C | 94% | 1006 hPa | 0 mm | - | 28 W/m² | - |
| 1787871383 | 21.11° C | 94% | 1006.1 hPa | 0 mm | - | 31 W/m² | - |
| 1787871078 | 21.11° C | 94% | 1006 hPa | 0 mm | - | 29 W/m² | - |
| 1787870777 | 21.11° C | 94% | 1006 hPa | 0 mm | - | 29 W/m² | - |
| 1787870473 | 21.11° C | 94% | 1006.1 hPa | 0 mm | - | 30 W/m² | - |
| 1787870168 | 21.11° C | 94% | 1006 hPa | 0 mm | - | 44 W/m² | - |
| 1787869868 | 21.11° C | 94% | 1006.1 hPa | 0 mm | - | 55 W/m² | - |
* Rain latest hour (hover to see other rain measurements)
** Current wind speed in m/s (hover to see current wind gust speed)